Starlink 34405

operational
NORAD ID: 64704 Int'l Des: 2025-142 Owner: SPXS Country: US Constellation: starlink
LEOCIRCULAR

Starlink 34405について

説明を読み込み中...

リアルタイム位置

3D地球を読み込み中...

次回通過

高度履歴

Altitude vs Time

uPlot chart will show altitude changes over time

軌道要素

1 64704U 25142J 25340.96801312 -.00032129 00000-0 -27001-2 0 9990
2 64704 70.0007 188.1732 0003279 314.0599 46.0290 14.98289036 25603
Epoch: Dec 6, 2025 • Age: 18 hours

現在のステータス

高度 580.3 km
速度 7.57 km/s
衛星直下点 42.41°N, 8.39°E
打ち上げ日 Jun 28, 2025
運用期間 0.4 years
タイプ internet

技術仕様

分類 Payload
質量 575.00 kg
乾燥質量 530.00 kg
総質量 575.00 kg
長さ 0.30 m
直径 4.10 m
スパン 29.00 m
形状 Box + pan
製造者 SPXS
バスタイプ Starlink V2MO
フェーズステータス In Orbit
所有者/国 SPXS/US

大規模コンステレーション

Loading constellations...